Tracking 35048 objects as of 19-Aug-2026
HD Live streaming from Space Station
objects crossing your sky now

FREGAT DEB


FREGAT DEB is no longer on orbit


NORAD ID: 45819
Int'l Code: 2011-037BD
Launch date: July 18, 2011
Source: Commonwealth of Independent States (former USSR) (CIS)
Launch site: TYURATAM MISSILE AND SPACE COMPLEX (TTMTR)
Decay date: 2020-09-19

Note: This is SATELLITE DEBRIS
Your satellite tracking list
Your tracking list is empty




NASA's NSSDC Master Catalog

Two Line Element Set (TLE):
1 45819U 11037BD  20261.42281515  .08764989  10571-4  18692-1 0  9994
2 45819  50.9606 338.0169 0348834   7.2834 353.3025 15.40027940 14412
Source of the keplerian elements: AFSPC